User: anonymous   Login
Location: Brno
(49.2000°N, 16.6330°E)
Time: 05:56:19
(UTC+02:00)
Language:

Cosmos 1459 Rocket - Orbit

View from above orbital plane
View from above orbital plane
View from above satellite
View from above satellite

Ground track
Ground track

The orbit data is extracted from the following two-line orbital elements,

1 14059U 83042B   17262.40986409 +.00000029 +00000-0 +13587-4 0  9993
2 14059 082.9756 351.9975 0042587 004.1522 355.9981 13.78595746728470
Epoch (UTC): 19 September 2017 09:50:12
Eccentricity: 0.0042587
inclination: 82.9756°
perigee height: 937 km
apogee height: 1000 km
right ascension of ascending node: 351.9975°
argument of perigee: 4.1522°
revolutions per day: 13.78595746
mean anomaly at epoch: 355.9981°
orbit number at epoch: 72847

The dashed part of the orbit path shows where the satellite is in the earth's shadow,  

DLR